Regional Weather Roundup
Issued by NWS

Home | Current Version | Previous Version | Text Only | Print | Product List | Glossary Off
Versions: 1 2 3 4 5 6 7 8 9 10 11 12 13 14 15 16 17 18 19 20 21 22 23 24 25 26 27 28 29 30 31 32 33 34 35 36 37 38 39 40 41 42 43 44 45 46 47 48 49 50

000
ASUS43 KFSD 300510
RWRSD

WEATHER ROUNDUP FOR SOUTH DAKOTA
NATIONAL WEATHER SERVICE SIOUX FALLS SD
1200 AM CDT SUN APR 30 2017

NOTE: "FAIR" INDICATES FEW OR NO CLOUDS BELOW 12,000 FEET WITH NO
SIGNIFICANT WEATHER AND/OR OBSTRUCTIONS TO VISIBILITY.


SDZ001>005-009-010-012>017-300600-
NORTHWEST AND NORTH CENTRAL SOUTH DAKOTA

CITY           SKY/WX    TMP DP  RH WIND       PRES   REMARKS
BUFFALO          N/A     44  22  41 S5        30.11F
FAITH            N/A     43  23  45 SE12      30.18F
MOBRIDGE       CLOUDY    42  21  43 SE6       30.17F
$$

SDZ012>016-024>037-041>051-057-063-072>074-300600-
SOUTHWEST AND SOUTH CENTRAL SOUTH DAKOTA

CITY           SKY/WX    TMP DP  RH WIND       PRES   REMARKS
RAPID CTY ARPT PTCLDY    32  22  66 NW3       30.18F
PIERRE         MOCLDY    43  21  41 E6        30.18F
CUSTER         CLEAR     29  16  58 NW3       30.18F
ELLSWORTH AFB  CLOUDY    42  21  43 SW5       30.18F
PHILIP         PTCLDY    36  25  64 CALM      30.18F
PINE RIDGE     CLEAR     32  27  81 CALM      30.17F
SPEARFISH      FAIR      34  21  60 SW6       30.19F WCI  29
WINNER         FAIR      44  28  53 NE7       30.17F
$$

SDZ004>011-016>023-039-040-300600-
NORTHEAST SOUTH DAKOTA

CITY           SKY/WX    TMP DP  RH WIND       PRES   REMARKS
ABERDEEN       CLOUDY    40  25  55 NE6       30.19F
WATERTOWN      CLOUDY    45  25  45 NE8       30.17F
BROOKINGS      MOCLDY    46  25  43 NE8       30.16F
SISSETON         N/A     43  31  62 CALM      30.18F
$$

SDZ017-020-022-023-036>040-048>070-300600-
SOUTHEAST SOUTH DAKOTA

CITY           SKY/WX    TMP DP  RH WIND       PRES   REMARKS
SIOUX FALLS    CLOUDY    46  28  49 NE10      30.13F
HURON          CLOUDY    45  28  51 NE5       30.17F
CHAMBERLAIN    CLOUDY    47  28  46 N3        30.18S
MITCHELL       CLOUDY    47  28  47 NE7       30.18F
YANKTON        CLOUDY    46  27  46 NE12      30.11F
$$

ABBREVIATIONS USED IN REMARKS
   TC - TEMPERATURE IN CELSIUS
  WCI - WIND CHILL INDEX
   HX - HEAT INDEX
  VSB - VISIBILITY




USA.gov is the U.S. government's official web portal to all federal, state and local government web resources and services.